Las Palmas de Gran Canaria, El Salvador

11:24 PM WEST en Junio 22, 2017 (GMT +0100)
Las Palmas de Gran Canaria

Tiempo Historia de GCLP - Abril, 2017

Change the Weather History Date:

Viernes, Abril 21, 2017

  Actual Average Record
Temperature  
Temperatura media 69 ° F -  
Temperatura máxima 76 ° F 71 ° F 93 ° F (2013)
Temperatura mínima 62 ° F 61 ° F 59 ° F (2001)
Cooling Degree Days 4    
Growing Degree Days 19 (Base 50)    
Moisture  
Punto de rocío 55 ° F    
Average Humidity 58    
Maximum Humidity 73    
Minimum Humidity 39    
Precipitación  
Precipitación 0.00 pul 0.00 pul - ()
Presión al nivel del mar  
Presión al nivel del mar 30.02 pul    
Viento  
Velocidad del viento 12 mph ()    
Velocidad máxima del viento 26 mph    
Max Gust Speed 23 mph    
Visibilidad 7.0 Millas    
Eventos      
Averages and records for this station are not official NWS values.
T = Trace of Precipitation, MM = Missing Value Source: Averaged Metar Reports

Daily Weather History Graph

Daily Weather History Graph

Search for Another Location

Airport or City:

Trip Planner

Search our weather history database for the weather conditions in past years. The results will help you decide how hot, cold, wet, or windy it might be!

Date:

Astronomía

Apr. 21, 2017 Salida Puesta
Hora real 7:30 AM WEST 8:30 PM WEST
Crepúsculo civil 7:06 AM WEST 8:54 PM WEST
Crepúsculo náutico 6:37 AM WEST 9:23 PM WEST
Crepúsculo astronómico 6:08 AM WEST 9:52 PM WEST
Luna 4:06 AM WEST (4/21) 3:32 PM WEST (4/21)
Horas de luz 13h 48m
Horas de luz
12h 59m
Creciente menguante, 30% of the Moon is Illuminated
Abr 21
Creciente menguante
Abr 26
Nueva
May 3
Cuarto creciente
May 10
Luna llena
May 19
Cuarto menguante

Hourly Weather History & Observations

Hora (WEST) Temp. Punto de rocío Humedad Presión Visibilidad Wind Dir Velocidad del viento Velocidad de ráfagas Precip Eventos Condiciones
12:00 AM 67 ° F 57 ° F 63% 30.01 pul - Norte 6.9 mph - -  
12:00 AM 68.0 ° F 57.2 ° F 68% 30.01 pul 6.2 mi Norte 11.5 mph - N/A   Nubes dispersas
12:30 AM 68.0 ° F 57.2 ° F 68% 30.01 pul 6.2 mi Norte 8.1 mph - N/A   Nubes dispersas
1:00 AM 66 ° F 56 ° F 62% 30.01 pul 11 mi Norte 8.1 mph - -   Nubes dispersas
1:00 AM 68.0 ° F 55.4 ° F 64% 30.01 pul 6.2 mi Norte 13.8 mph - N/A   Parcialmente nublado
1:30 AM 68.0 ° F 57.2 ° F 68% 30.01 pul 6.2 mi Norte 12.7 mph - N/A   Parcialmente nublado
2:00 AM 66 ° F 57 ° F 64% 30.00 pul - Norte 9.2 mph - -  
2:00 AM 68.0 ° F 57.2 ° F 68% 29.98 pul 6.2 mi Norte 12.7 mph - N/A   Nubes dispersas
2:30 AM 66.2 ° F 57.2 ° F 73% 29.98 pul 6.2 mi Norte 13.8 mph - N/A   Nubes dispersas
3:00 AM 66 ° F 55 ° F 60% 29.99 pul - Norte 10.4 mph - -  
3:00 AM 66.2 ° F 55.4 ° F 68% 29.98 pul 6.2 mi Norte 13.8 mph - N/A   Nubes dispersas
3:30 AM 66.2 ° F 55.4 ° F 68% 29.98 pul 6.2 mi Norte 13.8 mph - N/A   Parcialmente nublado
4:00 AM 65 ° F 54 ° F 58% 29.97 pul 11 mi Norte 11.5 mph - -   Nubes dispersas
4:00 AM 66.2 ° F 53.6 ° F 64% 29.95 pul 6.2 mi Norte 16.1 mph - N/A   Parcialmente nublado
4:30 AM 66.2 ° F 55.4 ° F 68% 29.98 pul 6.2 mi Norte 11.5 mph - N/A   Parcialmente nublado
5:00 AM 64 ° F 52 ° F 57% 29.98 pul - NNO 6.9 mph - -  
5:00 AM 64.4 ° F 53.6 ° F 68% 29.98 pul 6.2 mi Norte 8.1 mph - N/A   Parcialmente nublado
5:30 AM 64.4 ° F 53.6 ° F 68% 29.98 pul 6.2 mi Norte 8.1 mph - N/A   Parcialmente nublado
6:00 AM 63 ° F 52 ° F 58% 29.98 pul - NNO 6.9 mph - -  
6:00 AM 64.4 ° F 53.6 ° F 68% 29.98 pul 6.2 mi Norte 9.2 mph - N/A   Parcialmente nublado
6:30 AM 64.4 ° F 51.8 ° F 64% 29.98 pul 6.2 mi Norte 5.8 mph - N/A   Parcialmente nublado
7:00 AM 64 ° F 51 ° F 52% 29.99 pul 12 mi NNO 5.8 mph - -   Nubes dispersas
7:00 AM 62.6 ° F 51.8 ° F 68% 29.98 pul 6.2 mi NNO 3.5 mph - N/A   Parcialmente nublado
7:30 AM 64.4 ° F 51.8 ° F 64% 29.98 pul 6.2 mi Norte 6.9 mph - N/A   Parcialmente nublado
8:00 AM 64 ° F 51 ° F 53% 30.01 pul - Norte 4.6 mph - -  
8:00 AM 64.4 ° F 53.6 ° F 68% 30.01 pul 6.2 mi Norte 9.2 mph - N/A   Parcialmente nublado
8:30 AM 66.2 ° F 53.6 ° F 64% 30.01 pul 6.2 mi Norte 10.4 mph - N/A   Parcialmente nublado
9:00 AM 69 ° F 53 ° F 46% 30.02 pul - Norte 10.4 mph - -  
9:00 AM 69.8 ° F 55.4 ° F 60% 30.01 pul 6.2 mi Norte 12.7 mph - N/A   Parcialmente nublado
9:30 AM 69.8 ° F 51.8 ° F 53% 30.01 pul 6.2 mi Norte 16.1 mph - N/A   Parcialmente nublado
10:00 AM 72 ° F 53 ° F 40% 30.04 pul 12 mi NNO 9.2 mph - -   Nubes dispersas
10:00 AM 71.6 ° F 53.6 ° F 53% 30.04 pul 6.2 mi Norte 15.0 mph - N/A   Parcialmente nublado
10:30 AM 73.4 ° F 55.4 ° F 53% 30.04 pul 6.2 mi NNO 13.8 mph - N/A   Parcialmente nublado
11:00 AM 74 ° F 54 ° F 39% 30.04 pul - Norte 13.8 mph - -  
11:00 AM 73.4 ° F 53.6 ° F 50% 30.04 pul 6.2 mi Norte 17.3 mph - N/A   Parcialmente nublado
11:30 AM 73.4 ° F 59.0 ° F 61% 30.04 pul 6.2 mi NNE 21.9 mph - N/A   Parcialmente nublado
12:00 PM 74 ° F 58 ° F 47% 30.05 pul - NNE 24.2 mph - -  
12:00 PM 73.4 ° F 59.0 ° F 61% 30.04 pul 6.2 mi NNE 23.0 mph - N/A   Parcialmente nublado
12:30 PM 75.2 ° F 59.0 ° F 57% 30.04 pul 6.2 mi NNE 24.2 mph - N/A   Parcialmente nublado
1:00 PM 75 ° F 55 ° F 39% 30.04 pul 12 mi NNE 24.2 mph - -   Nubes dispersas
1:00 PM 75.2 ° F 55.4 ° F 50% 30.04 pul 6.2 mi NNE 26.5 mph - N/A   Parcialmente nublado
1:30 PM 75.2 ° F 57.2 ° F 53% 30.04 pul 6.2 mi NNE 26.5 mph - N/A   Parcialmente nublado
2:00 PM 73 ° F 54 ° F 41% 30.04 pul - NNE 23.0 mph - -  
2:00 PM 75.2 ° F 55.4 ° F 50% 30.04 pul 6.2 mi NNE 25.3 mph - N/A   Parcialmente nublado
2:30 PM 75.2 ° F 55.4 ° F 50% 30.04 pul 6.2 mi NNE 25.3 mph - N/A   Parcialmente nublado
3:00 PM 73 ° F 55 ° F 44% 30.03 pul - NNE 23.0 mph - -  
3:00 PM 73.4 ° F 55.4 ° F 53% 30.01 pul 6.2 mi NNE 24.2 mph - N/A   Nubes dispersas
3:30 PM 73.4 ° F 57.2 ° F 57% 30.01 pul 6.2 mi NE 21.9 mph - N/A   Muy nublado
4:00 PM 72 ° F 55 ° F 44% 30.04 pul 12 mi NNE 11.5 mph - -   Muy nublado
4:00 PM 73.4 ° F 55.4 ° F 53% 30.04 pul 6.2 mi NE 20.7 mph - N/A   Muy nublado
4:30 PM 73.4 ° F 55.4 ° F 53% 30.04 pul 6.2 mi Norte 11.5 mph - N/A   Muy nublado
5:00 PM 71 ° F 55 ° F 48% 30.03 pul - SE 6.9 mph - -  
5:00 PM 71.6 ° F 55.4 ° F 57% 30.04 pul 6.2 mi Norte 20.7 mph - N/A   Muy nublado
5:30 PM 71.6 ° F 55.4 ° F 57% 30.01 pul 6.2 mi Variable 5.8 mph - N/A   Muy nublado
6:00 PM 72 ° F 55 ° F 44% 30.03 pul - NE 3.5 mph - -  
6:00 PM 71.6 ° F 55.4 ° F 57% 30.01 pul 6.2 mi Norte 9.2 mph 23.0 mph N/A   Muy nublado
6:30 PM 71.6 ° F 57.2 ° F 60% 30.01 pul 6.2 mi NNE 24.2 mph - N/A   Nubes dispersas
7:00 PM 70 ° F 56 ° F 53% 30.03 pul 12 mi NNE 19.6 mph - -   Nubes dispersas
7:00 PM 69.8 ° F 57.2 ° F 64% 30.01 pul 6.2 mi NNE 23.0 mph - N/A   Parcialmente nublado
7:30 PM 69.8 ° F 57.2 ° F 64% 30.01 pul 6.2 mi NNE 20.7 mph - N/A   Parcialmente nublado
8:00 PM 69 ° F 55 ° F 51% 30.04 pul - Norte 15.0 mph - -  
8:30 PM 68.0 ° F 55.4 ° F 64% 30.04 pul 6.2 mi NNE 19.6 mph - N/A   Parcialmente nublado
9:00 PM 67 ° F 56 ° F 58% 30.06 pul - Norte 12.7 mph - -  
9:00 PM 68.0 ° F 55.4 ° F 64% 30.04 pul 6.2 mi NNE 16.1 mph - N/A   Parcialmente nublado
9:30 PM 68.0 ° F 55.4 ° F 64% 30.06 pul 6.2 mi Norte 13.8 mph - N/A   Parcialmente nublado
10:00 PM 67 ° F 55 ° F 56% 30.08 pul 12 mi Norte 9.2 mph - -   Nubes dispersas
10:00 PM 68.0 ° F 55.4 ° F 64% 30.06 pul 6.2 mi Norte 13.8 mph - N/A   Parcialmente nublado
10:30 PM 68.0 ° F 55.4 ° F 64% 30.06 pul 6.2 mi Norte 10.4 mph - N/A   Parcialmente nublado
11:00 PM 66 ° F 53 ° F 53% 30.09 pul - Norte 9.2 mph - -  
11:00 PM 68.0 ° F 55.4 ° F 64% 30.09 pul 6.2 mi Norte 12.7 mph - N/A   Parcialmente nublado
11:30 PM 68.0 ° F 55.4 ° F 64% 30.09 pul 6.2 mi Norte 12.7 mph - N/A   Muy nublado